EW3221 Weather Reports


time (UTC)temp
C
wind
direction
speed
KPH
gust
KPH
rain 1hr
cm
rain 24hr
cm
rain mn
cm
humidity
%
barometer
mb
20260503050035 7 301 0.0 11.3 0.00 0.03 0.00 69 1013.1
20260503044539 7 320 3.2 11.3 0.00 0.08 0.00 69 1013.3
20260503043038 7 311 0.0 4.8 0.00 0.08 0.00 68 1013.2
20260503041526 7 315 0.0 8.0 0.00 0.08 0.00 66 1013.3
20260503040022 7 299 1.6 9.7 0.00 0.08 0.00 66 1013.3
20260503034523 8 300 0.0 11.3 0.00 0.08 0.08 64 1013.2
20260503033021 8 293 0.0 1.6 0.00 0.08 0.08 65 1013.1
20260503031521 9 307 0.0 12.9 0.00 0.08 0.08 63 1013.1
20260503030020 9 304 0.0 1.6 0.00 0.08 0.08 65 1013.1
20260503024520 9 293 0.0 6.4 0.00 0.08 0.08 65 1013.1
20260503023019 9 279 0.0 0.0 0.00 0.08 0.08 64 1012.9
20260503021522 10 287 0.0 1.6 0.00 0.08 0.08 62 1012.9
20260503020019 10 289 0.0 0.0 0.00 0.08 0.08 60 1012.9
20260503014518 10 289 0.0 0.0 0.00 0.08 0.08 58 1012.8
20260503013032 11 303 0.0 8.0 0.00 0.08 0.08 57 1012.8
20260503011517 10 316 0.0 1.6 0.00 0.08 0.08 58 1012.6
20260503010016 11 297 0.0 8.0 0.00 0.08 0.08 54 1012.5
20260503004516 11 307 0.0 8.0 0.00 0.08 0.08 53 1012.2
20260503003015 11 317 4.8 9.7 0.00 0.08 0.08 54 1012.1
20260503001515 12 319 0.0 6.4 0.00 0.08 0.08 52 1011.8
20260503000016 12 284 0.0 12.9 0.00 0.08 0.08 49 1011.7
20260502234514 12 5 0.0 8.0 0.00 0.08 0.08 48 1011.4
20260502233027 13 319 0.0 12.9 0.00 0.08 0.08 47 1011.3
20260502231512 13 294 1.6 14.5 0.00 0.08 0.08 46 1011.3
20260502230012 13 313 0.0 9.7 0.00 0.08 0.08 46 1011.2
20260502224511 13 314 0.0 11.3 0.00 0.08 0.08 47 1011.1
20260502223011 13 327 0.0 1.6 0.00 0.08 0.08 45 1011.2
20260502221515 14 295 0.0 17.7 0.00 0.08 0.08 45 1011.2
20260502220015 15 319 4.8 14.5 0.00 0.08 0.08 46 1011.2
20260502214511 15 345 3.2 16.1 0.00 0.08 0.08 45 1011.3
20260502213010 15 315 8.0 17.7 0.00 0.08 0.08 44 1011.0
20260502211509 15 284 1.6 17.7 0.00 0.08 0.08 45 1011.0
20260502210009 15 333 0.0 14.5 0.00 0.08 0.08 41 1010.9
20260502204507 15 355 6.4 14.5 0.00 0.08 0.08 43 1010.9
20260502203005 16 315 6.4 14.5 0.00 0.08 0.08 43 1010.9
20260502201505 15 332 1.6 11.3 0.00 0.08 0.08 45 1010.9
20260502200004 16 342 3.2 12.9 0.00 0.08 0.08 40 1010.8
20260502194505 16 306 0.0 12.9 0.00 0.08 0.08 45 1011.0
20260502193001 15 331 0.0 12.9 0.00 0.08 0.08 48 1011.3
20260502191607 15 337 6.4 16.1 0.00 0.08 0.08 44 1011.7
20260502190058 16 283 6.4 17.7 0.00 0.08 0.08 45 1011.9
20260502184602 16 42 3.2 12.9 0.00 0.08 0.08 54 1012.2
20260502183056 16 246 0.0 16.1 0.00 0.08 0.08 52 1012.3
20260502181555 16 279 6.4 17.7 0.00 0.08 0.08 44 1012.6
20260502163049 13 5 0.0 9.7 0.00 0.08 0.08 54 1013.5
20260502161540 13 95 0.0 11.3 0.00 0.08 0.08 57 1013.7
20260502151549 12 314 1.6 16.1 0.00 0.08 0.08 61 1014.4
20260502123024 10 351 4.8 17.7 0.00 0.08 0.08 74 1013.7
20260502121511 10 316 0.0 9.7 0.00 0.08 0.08 73 1013.5
20260502114508 9 324 4.8 17.7 0.00 0.08 0.08 74 1013.8
20260502113006 9 343 4.8 14.5 0.00 0.08 0.08 74 1014.0
20260502111502 8 309 4.8 14.5 0.00 0.08 0.08 76 1013.8
20260502110100 8 309 9.7 17.7 0.00 0.08 0.08 76 1013.6
20260502104557 8 293 4.8 14.5 0.00 0.08 0.08 79 1013.4
20260502103104 8 308 3.2 12.9 0.00 0.08 0.08 84 1013.3
20260502101559 7 331 3.2 12.9 0.00 0.08 0.08 88 1013.1
20260502100113 7 323 0.0 0.0 0.00 0.08 0.08 90 1013.0
20260502070034 8 191 0.0 0.0 0.00 0.08 0.08 92 1012.0
20260502064532 9 191 0.0 0.0 0.00 0.08 0.08 92 1012.0
20260502063029 10 191 0.0 0.0 0.00 0.08 0.08 92 1012.2
20260502061534 10 190 0.0 0.0 0.03 0.08 0.08 92 1012.3
20260502060024 10 298 0.0 0.0 0.03 0.08 0.08 91 1012.2
20260502054524 10 298 0.0 0.0 0.03 0.08 0.08 91 1012.2
20260502053023 10 298 0.0 0.0 0.08 0.08 0.08 90 1012.2
20260502051524 10 298 0.0 0.0 0.05 0.05 0.05 90 1012.4